CAPE
0 0 0 0 0 0 0 0 0 0 0 0 0 0 0 0 0 0 0 0 0 5 0 0 0 0 0 0 0 0 1 0 0 0 0 0 0 0 24 18 42 23 0 0 0
0 0 0 0 0 0 0 0 0 0 0 0 0 0 0 0 0 0 0 0 0 0 0 0 0 0 0 0 0 0 1 0 1 0 0 0 0 0 0 0 0 6 0 0 0
0 0 0 0 0 0 0 0 0 0 0 0 0 0 0 0 0 0 0 0 0 0 0 0 0 0 0 0 0 0 0 0 0 0 0 0 0 15 10 0 0 6 1 0 0
0 0 0 0 0 0 0 0 0 0 0 0 0 0 0 0 0 0 0 0 0 0 0 0 0 0 0 0 0 0 0 0 0 0 0 0 2 0 0 0 0 4 20 0 0
0 0 0 0 0 0 0 0 0 0 0 0 0 0 0 0 0 0 0 0 0 0 0 0 0 0 0 0 0 0 0 0 0 0 0 0 0 0 0 0 0 1 78 12 3
0 0 0 0 0 0 0 0 0 0 0 0 0 0 0 0 0 0 0 0 0 0 0 0 0 0 0 0 0 0 0 0 0 0 0 0 0 0 0 0 0 0 32 11 1
0 0 0 0 0 0 0 0 0 0 0 0 0 0 0 0 0 0 0 0 0 0 0 0 0 0 0 0 0 0 0 0 0 0 3 0 0 0 0 0 0 0 21 95 35
0 0 0 0 0 0 0 0 0 0 0 0 0 0 0 0 0 0 0 0 0 0 0 0 0 0 0 0 0 0 0 0 0 0 26 0 3 2 1 0 0 0 1 65 8
0 0 0 0 0 0 0 0 0 0 0 0 0 0 0 0 0 0 0 0 0 0 0 0 0 0 0 0 0 0 0 0 0 0 13 1 1 13 83 54 42 0 34 61 21
0 0 0 0 0 0 0 0 0 0 0 0 0 0 0 0 0 0 0 0 0 0 0 0 0 0 0 0 3 1 0 0 0 0 0 0 2 0 1 7 51 18 28 24 24
0 0 0 0 0 0 0 0 0 0 0 0 0 0 0 0 0 0 0 0 0 0 0 0 0 0 0 0 0 0 0 0 0 0 0 0 0 20 2 3 13 14 12 6 1
0 0 0 0 0 0 0 0 0 0 0 0 0 0 0 0 0 0 0 0 0 0 0 0 0 0 0 0 0 0 0 0 0 0 0 0 12 10 12 15 20 13 6 4 1
0 0 0 0 0 0 0 0 0 0 0 0 0 0 0 0 0 0 0 0 0 0 0 0 0 0 0 0 0 0 0 0 0 0 0 0 1 1 15 5 2 5 5 2 3
0 0 0 0 0 0 0 0 0 0 0 0 0 0 0 0 0 0 0 0 0 0 0 0 0 0 0 0 0 0 0 0 0 0 0 0 0 0 4 2 0 1 6 6 4
0 0 0 0 0 0 0 0 0 0 0 0 0 0 0 0 0 0 0 0 0 0 0 0 0 0 0 0 0 0 0 0 0 0 0 0 0 0 0 0 1 3 7 7 8
0 0 0 0 0 0 0 0 0 0 0 0 0 0 0 0 0 0 0 0 0 0 0 0 0 0 0 0 0 0 0 0 0 0 0 1 0 0 2 6 2 2 4 9 9
0 0 0 0 0 0 0 0 0 0 0 0 0 0 0 0 0 0 0 0 0 0 0 0 0 0 0 0 0 0 0 0 0 0 0 2 0 4 9 6 8 6 5 7 9
0 0 0 0 0 0 0 0 0 0 0 0 0 0 0 0 0 0 0 0 0 0 0 0 0 0 0 0 0 0 0 0 0 0 0 0 0 0 0 3 2 6 4 5 4
0 0 0 0 0 0 0 0 0 0 0 0 0 0 0 0 0 0 0 0 0 0 0 0 0 0 0 0 0 0 0 0 0 0 0 2 0 3 0 0 0 1 0 1 4
0 0 0 0 0 0 0 0 0 0 0 0 0 0 0 0 0 0 0 0 0 0 0 0 0 0 0 0 0 0 0 0 0 0 0 0 0 1 0 0 0 0 0 0 2
0 0 0 0 0 0 0 0 0 0 0 0 0 0 0 0 0 0 0 0 0 0 0 0 0 0 0 0 0 0 0 0 0 0 0 0 0 6 0 1 1 1 0 0 1
0 0 0 0 0 0 0 0 0 0 0 0 0 0 0 0 0 0 0 0 0 0 0 0 0 0 0 0 0 0 0 0 0 0 0 0 0 4 0 3 2 1 0 0 1
0 0 0 0 0 0 0 0 0 0 0 0 0 0 0 0 0 0 0 0 0 0 0 0 0 0 0 0 0 0 0 0 0 0 0 0 0 0 0 0 1 0 0 0 0
0 0 0 0 0 0 0 0 0 0 0 0 0 0 0 0 0 0 0 0 0 0 0 0 0 0 0 0 0 0 0 0 0 0 0 0 0 0 0 0 1 0 0 0 0
0 0 0 0 0 0 0 0 0 0 0 0 0 0 0 0 0 0 0 0 0 0 0 0 0 0 0 0 0 0 0 0 0 0 0 0 0 0 0 2 1 1 0 0 0
0 0 0 0 0 0 0 0 0 0 0 0 0 0 0 0 0 0 0 0 0 0 0 0 0 0 0 0 0 0 0 0 0 0 0 0 0 0 0 1 0 0 0 0 0
0 0 0 0 0 0 0 0 0 0 0 0 0 0 0 0 0 0 0 0 0 0 0 0 0 0 0 0 0 0 0 0 0 0 0 0 0 1 0 0 2 0 0 0 0
CIN
-0 -0 -0 -0 -0 -0 -0 -0 -0 -0 -0 -0 -0 -0 -0 -0 -0 -0 -0 -0 -0 -0 -0 -0 -0 -0 -0 -0 -0 -0 -8 -0 -0 -24 -0 -0 -0 -0 -10 -9 -3 -13 -0 -0 -0
-0 -0 -0 -0 -0 -0 -0 -0 -0 -0 -0 -0 -0 -0 -0 -0 -0 -0 -0 -0 -0 -0 -0 -0 -0 -0 -0 -0 -0 -0 -6 -0 -11 -0 -9 -0 -0 -0 -0 -0 -0 -14 -0 -0 -0
-0 -0 -0 -0 -0 -0 -0 -0 -0 -0 -0 -0 -0 -0 -0 -0 -0 -0 -0 -0 -0 -0 -0 -0 -0 -0 -0 -0 -0 -0 -0 -0 -0 -4 -8 -0 -0 -19 -13 -0 -0 -1 -1 -0 -0
-0 -0 -0 -0 -0 -0 -0 -0 -0 -0 -0 -0 -0 -0 -0 -0 -0 -0 -0 -0 -0 -0 -0 -0 -0 -0 -0 -0 -0 -0 -0 -0 -0 -0 -0 -0 -12 -0 -0 -0 -0 -22 -14 -0 -0
-0 -0 -0 -0 -0 -0 -0 -0 -0 -0 -0 -0 -0 -0 -0 -0 -0 -0 -0 -0 -0 -0 -0 -0 -0 -0 -0 -0 -0 -0 -0 -0 -0 -0 -0 -0 -0 -0 -0 -0 -0 -46 -6 -8 -6
-0 -0 -0 -0 -0 -0 -0 -0 -0 -0 -0 -0 -0 -0 -0 -0 -0 -0 -0 -0 -0 -0 -0 -0 -0 -0 -0 -0 -0 -0 -0 -0 -0 -0 -0 -0 -0 -0 -0 -0 -0 -0 -20 -16 -9
-0 -0 -0 -0 -0 -0 -0 -0 -0 -0 -0 -0 -0 -0 -0 -0 -0 -0 -0 -0 -0 -0 -0 -0 -0 -0 -0 -0 -0 -0 -0 -0 -0 -0 -48 -0 -0 -0 -0 -0 -0 -0 -29 -29 -4
-0 -0 -0 -0 -0 -0 -0 -0 -0 -0 -0 -0 -0 -0 -0 -0 -0 -0 -0 -0 -0 -0 -0 -0 -0 -0 -0 -0 -0 -0 -0 -0 -0 -0 -9 -0 -31 -34 -6 -0 -0 -0 -21 -22 -20
-0 -0 -0 -0 -0 -0 -0 -0 -0 -0 -0 -0 -0 -0 -0 -0 -0 -0 -0 -0 -0 -0 -0 -0 -0 -0 -0 -0 -0 -0 -0 -0 -0 -0 -6 -3 -18 -15 -39 -55 -86 -0 -46 -26 -32
-0 -0 -0 -0 -0 -0 -0 -0 -0 -0 -0 -0 -0 -0 -0 -0 -0 -0 -0 -0 -0 -0 -0 -0 -0 -0 -0 -0 -0 -0 -0 -0 -0 -0 -0 -9 -6 -26 -22 -79 -10 -31 -34 -25 -15
-0 -0 -0 -0 -0 -0 -0 -0 -0 -0 -0 -0 -0 -0 -0 -0 -0 -0 -0 -0 -0 -0 -0 -0 -0 -0 -0 -0 -0 -0 -0 -0 -0 -0 -0 -0 -0 -0 -0 -0 -0 -0 -0 -0 -0
-0 -0 -0 -0 -0 -0 -0 -0 -0 -0 -0 -0 -0 -0 -0 -0 -0 -0 -0 -0 -0 -0 -0 -0 -0 -0 -0 -0 -0 -0 -0 -0 -0 -0 -0 -0 -0 -0 -0 -0 -0 -0 -0 -0 -0
-0 -0 -0 -0 -0 -0 -0 -0 -0 -0 -0 -0 -0 -0 -0 -0 -0 -0 -0 -0 -0 -0 -0 -0 -0 -0 -0 -0 -0 -0 -0 -0 -0 -0 -0 -0 -0 -0 -0 -0 -0 -0 -0 -0 -0
-0 -0 -0 -0 -0 -0 -0 -0 -0 -0 -0 -0 -0 -0 -0 -0 -0 -0 -0 -0 -0 -0 -0 -0 -0 -0 -0 -0 -0 -0 -0 -0 -0 -0 -0 -0 -0 -0 -0 -0 -0 -0 -0 -0 -0
-0 -0 -0 -0 -0 -0 -0 -0 -0 -0 -0 -0 -0 -0 -0 -0 -0 -0 -0 -0 -0 -0 -0 -0 -0 -0 -0 -0 -0 -0 -0 -0 -0 -0 -0 -0 -0 -2 -0 -0 -0 -0 -0 -0 -0
-0 -0 -0 -0 -0 -0 -0 -0 -0 -0 -0 -0 -0 -0 -0 -0 -0 -0 -0 -0 -0 -0 -0 -0 -0 -0 -0 -0 -0 -0 -0 -0 -0 -0 -0 -0 -0 -0 -0 -0 -0 -0 -0 -0 -0
-0 -0 -0 -0 -0 -0 -0 -0 -0 -0 -0 -0 -0 -0 -0 -0 -0 -0 -0 -0 -0 -0 -0 -0 -0 -0 -0 -0 -0 -0 -0 -0 -0 -0 -0 -0 -0 -0 -0 -0 -0 -0 -0 -0 -0
-0 -0 -0 -0 -0 -0 -0 -0 -0 -0 -0 -0 -0 -0 -0 -0 -0 -0 -0 -0 -0 -0 -0 -0 -0 -0 -0 -0 -0 -0 -0 -0 -0 -0 -0 -0 -0 -0 -0 -0 -0 -0 -0 -0 -0
-0 -0 -0 -0 -0 -0 -0 -0 -0 -0 -0 -0 -0 -0 -0 -0 -0 -0 -0 -0 -0 -0 -0 -0 -0 -0 -0 -0 -0 -0 -0 -0 -0 -0 -0 -0 -0 -0 -0 -0 -0 -1 -0 -0 -0
-0 -0 -0 -0 -0 -0 -0 -0 -0 -0 -0 -0 -0 -0 -0 -0 -0 -0 -0 -0 -0 -0 -0 -0 -0 -0 -0 -0 -0 -0 -0 -0 -0 -0 -0 -0 -0 -0 -0 -0 -0 -0 -0 -0 -0
-0 -0 -0 -0 -0 -0 -0 -0 -0 -0 -0 -0 -0 -0 -0 -0 -0 -0 -0 -0 -0 -0 -0 -0 -0 -0 -0 -0 -0 -0 -0 -0 -0 -0 -0 -0 -0 -0 -0 -0 -0 -0 -0 -0 -0
-0 -0 -0 -0 -0 -0 -0 -0 -0 -0 -0 -0 -0 -0 -0 -0 -0 -0 -0 -0 -0 -0 -0 -0 -0 -0 -0 -0 -0 -0 -0 -0 -0 -0 -0 -0 -0 -0 -0 -0 -0 -0 -0 -0 -0
-0 -0 -0 -0 -0 -0 -0 -0 -0 -0 -0 -0 -0 -0 -0 -0 -0 -0 -0 -0 -0 -0 -0 -0 -0 -0 -0 -0 -0 -0 -0 -0 -0 -0 -0 -0 -0 -0 -0 -0 -0 -0 -0 -0 -0
-0 -0 -0 -0 -0 -0 -0 -0 -0 -0 -0 -0 -0 -0 -0 -0 -0 -0 -0 -0 -0 -0 -0 -0 -0 -0 -0 -0 -0 -0 -0 -0 -0 -0 -0 -0 -0 -0 -0 -0 -0 -0 -0 -0 -0
-0 -0 -0 -0 -0 -0 -0 -0 -0 -0 -0 -0 -0 -0 -0 -0 -0 -0 -0 -0 -0 -0 -0 -0 -0 -0 -0 -0 -0 -0 -0 -0 -0 -0 -0 -0 -0 -0 -0 -0 -0 -0 -0 -0 -0
-0 -0 -0 -0 -0 -0 -0 -0 -0 -0 -0 -0 -0 -0 -0 -0 -0 -0 -0 -0 -0 -0 -0 -0 -0 -0 -0 -0 -0 -0 -0 -0 -0 -0 -0 -0 -0 -0 -0 -0 -0 -0 -0 -0 -0
-0 -0 -0 -0 -0 -0 -0 -0 -0 -0 -0 -0 -0 -0 -0 -0 -0 -0 -0 -0 -0 -0 -2 -0 -0 -0 -0 -0 -0 -0 -0 -0 -0 -0 -0 -0 -0 -0 -0 -0 -0 -0 -0 -0 -0
Wind_Speed
12 13 14 14 14 14 14 13 11 9 9 8 9 10 11 11 8 4 3 7 14 19 16 7 5 8 6 4 4 4 2 5 9 10 7 12 14 6 5 6 2 3 5 9 18
12 13 13 14 13 13 14 12 10 8 8 8 9 10 10 10 1 3 14 17 19 23 10 6 7 7 3 4 4 4 4 7 7 8 11 16 12 10 2 6 8 6 7 8 14
13 13 13 13 14 14 14 12 8 7 8 8 9 10 12 4 2 3 19 18 20 19 5 4 5 5 4 4 4 5 6 5 13 13 13 14 13 6 4 7 7 8 10 5 14
12 13 14 14 14 14 13 11 7 7 8 9 10 12 12 1 2 6 21 19 20 15 7 5 6 6 4 4 4 5 9 14 11 8 7 9 3 5 7 14 8 5 2 3 10
12 13 13 14 14 14 13 11 7 7 9 10 11 13 4 7 5 11 18 13 10 10 6 4 5 4 4 6 6 5 11 9 14 14 14 10 10 10 11 12 9 10 7 2 9
12 13 14 14 14 13 13 10 7 7 9 9 10 11 3 5 7 10 9 9 7 5 5 3 2 5 5 5 2 5 14 21 13 12 8 7 9 5 10 7 9 10 10 4 6
12 13 13 15 15 13 13 11 7 7 9 8 9 4 4 7 5 8 14 15 6 3 3 3 4 1 2 7 6 9 7 10 5 7 5 2 4 7 14 12 14 10 9 17 16
12 13 13 16 14 13 13 11 6 5 7 8 9 1 2 3 7 7 8 23 12 2 5 5 4 2 2 6 8 5 3 7 12 8 5 3 7 7 5 7 10 7 4 9 10
11 12 13 14 14 13 13 11 7 8 9 7 3 1 3 10 15 7 6 16 11 5 3 2 3 1 6 3 5 5 6 10 10 10 6 2 6 5 8 8 10 10 8 11 8
10 12 12 14 13 14 14 5 2 7 5 1 1 3 4 8 8 11 20 10 4 9 6 5 6 2 5 6 7 12 5 6 7 10 14 4 7 7 13 18 12 14 10 6 5
9 10 12 13 13 16 5 4 5 6 10 4 1 2 8 10 3 15 19 9 7 7 7 5 9 8 9 5 4 6 6 8 13 5 10 7 9 15 16 21 20 17 14 12 12
10 10 10 11 10 14 4 6 2 4 6 1 1 3 6 3 6 18 17 8 8 5 9 7 3 5 9 12 7 7 5 6 9 11 5 8 11 10 13 13 14 16 18 18 17
10 11 10 11 5 6 5 4 1 2 6 2 2 3 7 3 5 14 15 8 5 7 6 0 5 8 10 9 12 8 4 6 11 12 4 6 4 17 10 16 22 22 19 18 17
10 10 11 10 5 2 3 4 2 2 7 9 7 6 10 3 7 6 13 2 8 6 8 4 8 8 13 13 8 4 4 15 13 5 2 2 1 17 16 18 25 23 21 21 22
9 9 11 8 3 4 1 3 1 3 6 7 6 2 5 10 5 12 11 7 4 6 5 5 7 10 17 12 7 9 21 13 6 4 1 1 6 11 12 23 26 23 23 22 20
7 7 5 4 4 1 2 3 3 9 4 4 5 7 7 7 7 9 10 8 2 5 5 5 7 5 9 17 4 16 7 4 3 2 4 7 4 9 15 18 22 19 23 22 22
3 4 4 2 1 1 3 3 7 8 3 6 5 7 3 7 7 8 9 13 11 10 11 10 7 8 14 11 5 17 8 6 7 6 3 3 11 3 9 17 16 20 22 21 19
1 3 4 2 1 3 3 6 9 3 2 2 4 4 5 8 5 9 5 8 6 6 2 7 11 9 14 6 10 8 4 4 3 4 4 7 5 4 18 14 13 15 18 17 19
3 2 2 2 2 3 6 9 6 3 2 5 4 5 5 4 3 6 7 5 4 3 4 8 7 6 6 5 8 9 6 4 3 4 2 4 5 1 22 19 21 22 23 23 23
3 2 1 3 3 4 8 5 3 2 2 2 2 3 5 6 6 6 4 4 6 5 2 3 7 2 6 7 7 5 7 5 4 5 6 4 4 8 23 26 25 26 25 24 23
3 3 2 3 3 7 6 3 3 1 0 1 1 2 3 2 1 2 5 3 5 7 3 3 3 10 3 6 6 9 7 6 3 2 1 4 3 5 13 17 21 20 22 22 21
3 2 2 2 6 2 3 6 5 3 1 1 3 2 2 1 2 2 4 4 6 3 3 3 3 5 5 1 1 5 6 5 2 7 2 2 0 5 13 13 15 17 21 20 19
3 1 2 3 5 2 1 4 3 3 1 1 2 1 1 1 4 1 2 1 5 6 6 3 3 6 11 8 6 6 9 7 4 3 4 2 3 7 15 15 15 15 20 19 19
4 2 5 5 0 8 6 4 3 1 1 2 3 2 4 3 3 1 2 2 5 5 10 3 2 7 6 8 2 5 8 10 4 4 5 1 10 10 20 20 18 15 18 17 17
3 2 2 2 3 5 5 6 6 4 0 1 1 2 4 2 4 0 2 5 4 8 5 5 1 1 8 10 3 3 5 8 5 4 2 9 9 10 18 17 13 10 15 18 20
6 6 3 2 3 6 3 4 6 4 6 3 3 4 4 5 6 5 4 2 2 5 4 4 3 5 5 1 2 2 8 7 3 6 3 8 7 18 18 14 14 13 16 18 21
2 2 7 1 3 5 5 7 7 9 1 3 5 4 2 3 4 4 3 3 3 4 4 2 2 4 6 6 4 4 3 3 5 1 4 6 9 16 20 18 14 12 17 17 17
Wind_Direction
2 2 0 0 359 358 356 356 359 8 16 13 4 360 5 4 334 27 334 319 344 340 351 305 314 306 307 264 197 126 213 245 254 266 260 277 292 279 302 281 296 187 238 299 320
0 359 359 359 356 357 356 355 358 4 9 6 1 356 351 351 28 30 334 347 344 349 340 324 310 312 300 279 298 171 211 250 228 248 270 275 271 280 286 292 293 249 233 316 330
359 357 358 357 355 356 355 353 354 355 357 360 355 345 335 332 93 311 342 346 350 351 309 270 309 354 322 349 295 314 250 253 284 266 262 271 270 237 236 276 236 291 300 340 335
358 354 354 354 354 353 355 353 350 350 348 349 345 337 335 43 25 295 336 349 348 342 330 314 340 0 299 307 293 324 258 266 270 259 269 275 258 253 208 258 269 241 257 279 316
357 353 352 352 352 351 352 351 348 348 343 342 345 340 19 39 314 296 335 335 335 336 326 312 0 337 312 294 315 240 274 275 273 282 269 261 249 250 260 263 265 255 194 153 285
355 352 351 349 348 347 346 344 337 339 347 353 357 346 59 75 279 310 334 304 302 311 306 264 225 241 268 263 265 260 297 288 288 273 264 262 260 184 266 257 253 262 199 169 301
352 350 349 346 344 343 342 336 334 325 321 335 350 354 78 204 320 317 320 321 288 225 251 235 188 135 289 289 250 277 298 299 259 272 276 217 274 226 251 249 251 238 180 175 195
350 350 347 343 341 341 340 333 338 325 315 315 329 23 177 228 320 349 345 337 332 245 188 240 199 239 196 292 307 336 36 342 299 308 338 74 299 323 312 256 256 224 234 135 198
348 347 343 343 337 339 331 321 306 302 296 310 9 303 333 321 355 349 33 330 297 301 261 185 90 10 333 332 332 5 297 321 312 333 329 249 303 281 351 41 338 190 181 171 200
343 345 343 342 339 336 323 294 280 358 28 318 17 27 7 313 321 343 336 345 336 335 34 43 44 31 351 8 346 318 333 301 300 318 343 355 314 3 9 29 26 39 39 44 162
340 344 343 343 347 343 12 39 34 1 30 95 228 135 281 294 353 348 340 349 6 47 19 3 42 354 306 2 321 308 318 309 323 301 330 345 24 33 34 31 20 20 15 23 12
339 341 340 342 353 359 58 79 123 163 101 260 341 255 270 293 348 357 356 39 33 14 343 17 359 291 314 334 332 318 309 310 306 319 12 3 54 16 34 31 15 11 10 2 357
339 337 330 333 348 34 65 81 62 102 104 350 2 328 326 14 43 343 16 332 25 23 2 121 274 327 340 333 347 327 252 309 302 314 204 360 70 19 12 12 5 9 359 355 351
340 338 334 337 69 141 45 317 41 106 78 327 345 358 354 349 33 4 7 5 10 354 335 286 310 342 339 349 357 290 248 302 289 332 294 80 46 20 354 2 10 3 356 346 336
344 338 342 45 143 55 296 325 29 53 55 333 332 301 2 65 285 344 354 359 31 315 16 286 318 344 349 332 336 268 314 292 280 254 309 352 81 344 3 3 356 352 346 346 335
342 346 37 33 56 2 350 28 34 43 286 325 334 3 16 27 7 334 6 15 31 352 356 291 293 344 330 311 306 319 329 19 49 352 43 349 99 13 9 346 347 346 348 338 336
343 356 36 67 125 280 76 50 37 94 354 335 339 4 44 349 4 13 2 21 36 12 16 325 318 313 5 339 321 353 17 350 10 16 1 34 64 67 358 357 347 337 341 338 335
84 74 56 71 86 97 59 55 72 249 281 356 0 332 62 9 16 355 23 16 33 68 22 26 336 11 334 7 309 322 56 108 333 347 313 36 31 139 30 358 347 349 342 339 340
119 46 66 325 120 80 78 54 191 218 316 335 321 43 2 11 68 32 22 359 347 32 72 2 294 324 342 338 9 323 35 259 267 246 291 62 357 146 358 355 354 2 350 354 350
110 87 354 317 105 77 71 139 165 31 357 9 66 41 12 348 37 46 356 311 330 10 105 287 297 316 305 355 5 66 305 11 6 19 348 91 60 354 351 351 348 356 354 348 350
69 68 261 12 68 48 100 152 126 139 187 52 144 64 66 40 48 32 280 316 335 324 34 101 116 296 22 15 15 2 10 350 287 3 116 316 66 10 0 346 343 352 347 342 346
118 56 314 60 53 33 95 129 125 174 36 124 98 98 120 49 51 15 18 199 341 356 2 280 153 290 236 23 141 96 353 350 54 329 326 295 3 39 20 345 341 348 343 344 348
111 151 334 87 119 70 109 73 80 132 158 128 112 115 352 102 52 295 4 67 18 20 6 312 344 351 350 355 4 30 2 333 269 271 17 34 337 33 4 354 352 353 341 344 348
99 64 339 46 38 126 136 139 117 28 140 114 123 114 56 53 40 291 328 334 344 8 9 72 95 151 195 222 202 358 335 345 351 56 314 39 306 355 352 348 349 352 342 344 345
43 217 211 201 320 101 98 139 131 169 228 123 82 163 132 85 359 277 345 339 8 354 13 92 114 261 266 265 217 84 345 351 37 2 125 316 309 1 342 333 338 342 342 348 354
137 139 32 71 79 89 358 206 147 157 141 219 151 166 154 153 175 220 140 181 253 332 22 31 303 4 295 64 10 134 23 354 7 359 320 311 322 358 328 327 340 352 354 353 347
172 55 100 260 76 90 208 171 188 132 5 165 154 119 180 212 150 183 200 181 208 147 328 49 29 38 282 348 20 6 318 329 314 82 306 3 315 326 327 331 338 0 359 348 341